Regional Weather Roundup
Issued by NWS

Home | Current Version | Previous Version | Text Only | Print | Product List | Glossary On
Versions: 1 2 3 4 5 6 7 8 9 10 11 12 13 14 15 16 17 18 19 20 21 22 23 24 25 26 27 28 29 30 31 32 33 34 35 36 37 38 39 40 41 42 43 44 45 46 47 48 49 50
000
ASUS45 KABQ 260810
RWRNM
WEATHER ROUNDUP FOR NEW MEXICO
NATIONAL WEATHER SERVICE ALBUQUERQUE NM
200 AM MDT SAT JUL 26 2014

NOTE: "FAIR" MEANS FEW OR NO CLOUDS BELOW 12,000 FEET AGL WITH NO
       SIGNIFICANT WEATHER OR OBSTRUCTIONS TO VISION.

      THIS PRODUCT IS RELEASED AS TWO VERSIONS.  ONE VERSION NEAR
      THE TOP OF THE HOUR CONTAINING PRELIMINARY DATA FROM ALBUQUERQUE
      AND OTHER STATIONS.  A FINAL VERSION WITH ADDITIONAL DATA IS
      ISSUED ABOUT 10 MINUTES AFTER THE HOUR.

NMZ501-503-504-510>518-260900-
NORTHWEST PLATEAU/NORTHCENTRAL MOUNTAINS

CITY           SKY/WX    TMP DP  RH WIND       PRES   REMARKS
FARMINGTON     CLEAR     73  41  31 NW6       30.14S
LOS ALAMOS     PTCLDY    72  45  38 N8        30.29F
SANTA FE       CLEAR     68  49  50 N7        30.21S
TAOS           PTCLDY    59  43  55 NE6       30.30F
ANGEL FIRE     FAIR      53  46  78 CALM      30.41F

$$
NMZ402-403-502-505>509-260900-
WESTCENTRAL MOUNTAINS/SOUTHWEST MOUNTAINS

CITY           SKY/WX    TMP DP  RH WIND       PRES   REMARKS
GALLUP         PTCLDY    67  41  38 VRB3      30.26R
GRANTS         PTCLDY    65  48  53 CALM      30.26S
SILVER CITY    PTCLDY    73  50  43 NW14      30.18F

$$
NMZ407-409-411-412-260900-
SOUTHERN DESERTS

CITY           SKY/WX    TMP DP  RH WIND       PRES   REMARKS
LORDSBURG      FAIR      77  55  47 W10       30.11S
DEMING         CLEAR     77  55  46 SW9       30.08S
LAS CRUCES     CLEAR     78  39  24 SE6       30.09R
HOLLOMAN AFB   CLEAR     82  40  22 S12       30.03F
ALAMOGORDO     CLEAR     81  37  21 S10       30.05F
T OR C         PTCLDY    79  43  27 CALM      30.09S

$$
NMZ519>523-260900-
CENTRAL VALLEYS/CENTRAL HIGHLANDS

CITY           SKY/WX    TMP DP  RH WIND       PRES   REMARKS
ALBUQUERQUE    PTCLDY    78  41  26 E7        30.12F
MORIARTY ARPT  FAIR      62  43  50 CALM      30.22S
CLINES CORNERS PTCLDY    69  39  33 W12       30.25F
BELEN          FAIR      77  42  28 SW7       30.11S
SOCORRO        FAIR      76  39  26 S7        30.08S

$$
NMZ524>526-539-540-260900-
SOUTHCENTRAL MOUNTAINS

CITY           SKY/WX    TMP DP  RH WIND       PRES   REMARKS
RUIDOSO        CLEAR     70  41  35 CALM      30.29S

$$
NMZ527>531-260900-
NORTHEAST HIGHLANDS/NORTHEAST PLAINS

CITY           SKY/WX    TMP DP  RH WIND       PRES   REMARKS
LAS VEGAS      MOCLDY    67  49  52 N8        30.25F
RATON          PTCLDY    67  54  63 NE6       30.20S
CLAYTON        PTCLDY    77  46  33 S8        30.09F

$$
NMZ532>537-260900-
EASTCENTRAL PLAINS

CITY           SKY/WX    TMP DP  RH WIND       PRES   REMARKS
TUCUMCARI      CLEAR     80  45  28 SW9       30.02R
CANNON AFB     CLEAR     73  49  41 S10       30.09F
CLOVIS AIRPORT NOT AVBL

$$
NMZ028-029-538-260900-
SOUTHEAST PLAINS

CITY           SKY/WX    TMP DP  RH WIND       PRES   REMARKS
ROSWELL        CLEAR     79  47  32 S12       30.03F
ARTESIA        CLEAR     77  50  38 S10       30.04S
CARLSBAD       CLEAR     82  53  36 S12       30.02F
HOBBS          CLEAR     77  55  47 S9        30.08R


$$


USA.gov is the U.S. government's official web portal to all federal, state and local government web resources and services.